Terminal Aerodrome Forecast
Issued by NWS Miami, FL

Home | Current Version | Previous Version | Text Only | Print | Product List | Glossary On
Versions: 1 2 3 4 5 6 7 8 9 10 11 12 13 14 15 16 17 18 19 20 21 22 23 24 25 26 27 28 29 30 31 32 33 34 35 36 37 38 39 40 41 42 43 44 45 46 47 48 49 50
000
FTUS42 KMFL 041130
TAFAPF
TAF
KAPF 041130Z 0412/0512 10005KT P6SM FEW005
      TEMPO 0412/0413 4SM BR SCT005
     FM041500 14012KT P6SM SCT040 SCT250
     FM041900 19010KT P6SM SCT050 SCT250
     FM050000 VRB05KT P6SM FEW040 SCT250=

USA.gov is the U.S. government's official web portal to all federal, state and local government web resources and services.